SP5IZJ-2 Weather Reports


Display with metric or nautical units.
time (UTC)temp
F
wind
direction
speed
MPH
gust
MPH
rain 1hr
in
rain 24hr
in
rain mn
in
humidity
%
barometer
mb
20260509231459 37 225 0.0 0.0 0.00 0.00 0.00 85 1012.8
20260509230059 37 225 0.0 0.0 0.00 0.00 0.00 84 1012.8
20260509224000 38 225 0.0 0.0 0.00 0.00 0.00 84 1012.8
20260509223254 38 225 0.0 0.0 0.00 0.00 0.00 84 1012.8
20260509222600 39 225 0.0 0.0 0.00 0.00 0.00 84 1012.8
20260509221900 39 225 0.0 0.0 0.00 0.00 0.00 84 1013.0
20260509221200 39 225 0.0 0.0 0.00 0.00 0.00 83 1013.0
20260509220438 40 225 0.0 0.0 0.00 0.00 0.00 84 1012.9
20260509215801 39 225 0.0 0.0 0.00 0.00 0.00 83 1013.0
20260509215101 39 225 0.0 0.0 0.00 0.00 0.00 82 1013.0
20260509213656 39 225 0.0 0.0 0.00 0.00 0.00 81 1013.0
20260509212305 40 225 0.0 0.0 0.00 0.00 0.00 80 1012.9
20260509210902 41 225 0.0 0.0 0.00 0.00 0.00 78 1013.0
20260509210203 42 225 0.0 0.0 0.00 0.00 0.00 79 1013.0
20260509205504 42 225 0.0 0.0 0.00 0.00 0.00 79 1013.0
20260509204802 42 225 0.0 0.0 0.00 0.00 0.00 79 1013.0
20260509203403 41 225 0.0 0.0 0.00 0.00 0.00 78 1013.0
20260509202703 41 225 0.0 0.0 0.00 0.00 0.00 75 1013.0
20260509195904 43 225 0.0 0.0 0.00 0.00 0.00 73 1013.0
20260509195134 44 225 0.0 0.0 0.00 0.00 0.00 73 1013.0
20260509194456 44 225 0.0 0.0 0.00 0.00 0.00 74 1013.1
20260509193805 45 225 0.0 0.0 0.00 0.00 0.00 73 1013.2
20260509192405 45 225 0.0 0.0 0.00 0.00 0.00 72 1013.0
20260509191705 46 225 0.0 0.0 0.00 0.00 0.00 70 1013.2
20260509191005 47 225 0.0 0.0 0.00 0.00 0.00 69 1013.2
20260509190305 47 225 0.0 0.0 0.00 0.00 0.00 68 1013.1
20260509185606 48 225 0.0 3.0 0.00 0.00 0.00 67 1012.9
20260509184905 49 225 1.0 4.0 0.00 0.00 0.00 67 1012.8
20260509184207 48 359 0.0 0.0 0.00 0.00 0.00 67 1012.9
20260509182743 49 225 0.0 0.0 0.00 0.00 0.00 64 1012.7
20260509182106 50 225 0.0 0.0 0.00 0.00 0.00 62 1012.7
20260509181402 51 225 0.0 0.0 0.00 0.00 0.00 60 1012.8
20260509180708 52 203 0.0 0.0 0.00 0.00 0.00 58 1012.5
20260509175308 55 225 1.0 5.0 0.00 0.00 0.00 53 1012.4
20260509174608 58 225 2.0 8.0 0.00 0.00 0.00 49 1012.5
20260509173831 61 225 0.0 3.0 0.00 0.00 0.00 47 1012.5
20260509173129 62 359 0.0 0.0 0.00 0.00 0.00 44 1012.2
20260509171800 64 203 1.0 5.0 0.00 0.00 0.00 41 1012.2
20260509171023 65 158 0.0 4.0 0.00 0.00 0.00 41 1012.3
20260509170356 66 359 0.0 0.0 0.00 0.00 0.00 41 1012.1
20260509165642 65 359 0.0 0.0 0.00 0.00 0.00 42 1012.1
20260509165015 65 203 0.0 3.0 0.00 0.00 0.00 40 1012.0
20260509165008 65 203 0.0 3.0 0.00 0.00 0.00 40 1012.0
20260509164242 69 180 1.0 8.0 0.00 0.00 0.00 40 1012.0
20260509163601 68 203 3.0 9.0 0.00 0.00 0.00 40 1012.1
20260509162210 67 158 0.0 3.0 0.00 0.00 0.00 46 1012.0
20260509161510 61 180 0.0 1.0 0.00 0.00 0.00 50 1012.0
20260509160746 63 180 0.0 0.0 0.00 0.00 0.00 48 1012.2
20260509155326 67 180 1.0 4.0 0.00 0.00 0.00 44 1012.0
20260509154701 70 359 0.0 0.0 0.00 0.00 0.00 41 1012.2
20260509153926 73 135 0.0 2.0 0.00 0.00 0.00 40 1012.2
20260509153310 73 158 2.0 8.0 0.00 0.00 0.00 41 1012.0
20260509151212 68 23 0.0 0.0 0.00 0.00 0.00 45 1012.1
20260509145026 64 158 0.0 0.0 0.00 0.00 0.00 53 1012.0
20260509143704 59 23 0.0 0.0 0.00 0.00 0.00 57 1011.9
20260509143012 58 359 0.0 0.0 0.00 0.00 0.00 56 1012.0
20260509142235 59 23 0.0 0.0 0.00 0.00 0.00 56 1011.9
20260509140139 60 68 0.0 0.0 0.00 0.00 0.00 55 1011.9
20260509135439 59 23 0.0 0.0 0.00 0.00 0.00 56 1012.0
20260509132656 60 0 0.0 1.0 0.00 0.00 0.00 52 1012.0
20260509131959 62 0 0.0 4.0 0.00 0.00 0.00 51 1012.1
20260509131237 62 90 0.0 3.0 0.00 0.00 0.00 51 1011.9
20260509125829 63 135 0.0 0.0 0.00 0.00 0.00 51 1012.1
20260509125129 63 45 0.0 1.0 0.00 0.00 0.00 50 1012.2
20260509124457 65 68 1.0 4.0 0.00 0.00 0.00 49 1012.3
20260509123756 66 45 0.0 2.0 0.00 0.00 0.00 49 1012.2
20260509120932 61 135 1.0 4.0 0.00 0.00 0.00 53 1012.5
20260509120317 60 158 0.0 4.0 0.00 0.00 0.00 54 1012.5
20260509115532 60 225 0.0 4.0 0.00 0.00 0.00 52 1012.7
20260509114853 61 135 1.0 4.0 0.00 0.00 0.00 50 1012.5
20260509114214 64 135 1.0 4.0 0.00 0.00 0.00 49 1012.5
20260509113501 65 225 1.0 7.0 0.00 0.00 0.00 49 1012.7
20260509112737 64 225 2.0 6.0 0.00 0.00 0.00 50 1012.8
20260509112113 62 135 2.0 9.0 0.00 0.00 0.00 54 1012.8
20260509111417 60 158 1.0 6.0 0.00 0.00 0.00 56 1012.8
20260509110632 58 135 3.0 10.0 0.00 0.00 0.00 56 1012.9
20260509110017 58 135 4.0 10.0 0.00 0.00 0.00 55 1013.0
20260509105300 60 158 1.0 7.0 0.00 0.00 0.00 54 1012.9
20260509104608 60 203 1.0 4.0 0.00 0.00 0.00 54 1012.9
20260509103841 61 158 3.0 8.0 0.00 0.00 0.00 53 1012.9
20260509103200 61 158 3.0 8.0 0.00 0.00 0.00 53 1013.0
20260509101757 64 203 1.0 9.0 0.00 0.00 0.00 55 1012.9
20260509100334 60 158 1.0 5.0 0.00 0.00 0.00 57 1012.9
20260509095649 60 180 3.0 12.0 0.00 0.00 0.00 57 1013.1
20260509094934 57 158 3.0 8.0 0.00 0.00 0.00 60 1013.1
20260509094319 56 158 2.0 9.0 0.00 0.00 0.00 60 1013.2
20260509093534 58 359 0.0 0.0 0.00 0.00 0.00 60 1013.1
20260509091436 54 158 1.0 8.0 0.00 0.00 0.00 65 1013.0
20260509090736 54 158 1.0 4.0 0.00 0.00 0.00 66 1013.1
20260509085342 54 180 2.0 7.0 0.00 0.00 0.00 66 1013.2
20260509084700 53 135 3.0 9.0 0.00 0.00 0.00 67 1013.0
20260509084021 53 158 2.0 7.0 0.00 0.00 0.00 69 1013.1
20260509082622 52 158 4.0 11.0 0.00 0.00 0.00 69 1013.1
20260509081921 52 158 5.0 11.0 0.00 0.00 0.00 70 1013.0
20260509081221 52 158 7.0 13.0 0.00 0.00 0.00 70 1013.0
20260509080521 53 135 7.0 13.0 0.00 0.00 0.00 69 1013.0
20260509075122 53 158 4.0 7.0 0.00 0.00 0.00 74 1012.6
20260509074419 52 135 3.0 8.0 0.00 0.00 0.00 75 1012.8
20260509072942 51 135 4.0 8.0 0.00 0.00 0.00 79 1012.8
20260509070846 51 158 4.0 9.0 0.00 0.00 0.00 78 1012.6
20260509065438 51 135 4.0 9.0 0.00 0.00 0.00 79 1012.5
20260509064738 51 158 4.0 13.0 0.00 0.00 0.00 79 1012.6
20260509064052 51 135 4.0 13.0 0.00 0.00 0.00 79 1012.6
20260509063340 52 158 1.0 6.0 0.00 0.00 0.00 79 1012.4
20260509062639 52 135 2.0 7.0 0.00 0.00 0.00 81 1012.5
20260509061239 51 135 4.0 8.0 0.00 0.00 0.00 83 1012.3
20260509060557 51 135 2.0 8.0 0.00 0.00 0.00 85 1012.4
20260509055859 51 135 2.0 6.0 0.00 0.00 0.00 86 1012.2
20260509055211 50 158 4.0 7.0 0.00 0.00 0.00 87 1012.4
20260509054440 49 135 4.0 7.0 0.00 0.00 0.00 89 1012.4
20260509053040 49 158 2.0 6.0 0.00 0.00 0.00 91 1012.3
20260509051641 47 135 3.0 6.0 0.00 0.00 0.00 91 1012.4
20260509050941 47 135 3.0 9.0 0.00 0.00 0.00 91 1012.4
20260509050259 47 135 0.0 3.0 0.00 0.00 0.00 91 1012.3
20260509045541 47 135 0.0 3.0 0.00 0.00 0.00 91 1012.2
20260509044142 46 113 0.0 0.0 0.00 0.00 0.00 91 1012.4
20260509042742 46 135 0.0 0.0 0.00 0.00 0.00 90 1012.2
20260509042053 46 135 0.0 0.0 0.00 0.00 0.00 90 1012.2
20260509041342 46 113 0.0 0.0 0.00 0.00 0.00 90 1012.1
20260509041006 46 359 0.0 0.0 0.00 0.00 0.00 90 1012.2
20260509040642 46 113 0.0 0.0 0.00 0.00 0.00 90 1012.1
20260509035954 46 359 0.0 0.0 0.00 0.00 0.00 90 1012.2
20260509035243 46 90 0.0 0.0 0.00 0.00 0.00 90 1012.2
20260509034628 46 90 0.0 0.0 0.00 0.00 0.00 90 1012.2
20260509033847 46 90 0.0 0.0 0.00 0.00 0.00 90 1012.2
20260509032444 46 113 0.0 0.0 0.00 0.00 0.00 90 1012.1
20260509031746 46 113 0.0 0.0 0.00 0.00 0.00 90 1012.0
20260509031129 46 113 0.0 0.0 0.00 0.00 0.00 90 1012.1
20260509030344 45 90 0.0 0.0 0.00 0.00 0.00 90 1012.1
20260509024951 45 113 0.0 0.0 0.00 0.00 0.00 89 1012.1
20260509023547 46 90 0.0 1.0 0.00 0.00 0.00 89 1012.2
20260509022847 46 113 0.0 0.0 0.00 0.00 0.00 89 1012.1
20260509022154 46 113 0.0 0.0 0.00 0.00 0.00 89 1012.1
20260509021530 46 113 0.0 0.0 0.00 0.00 0.00 89 1012.1
20260509020819 46 113 0.0 0.0 0.00 0.00 0.00 89 1012.1
20260509020132 46 113 0.0 0.0 0.00 0.00 0.00 89 1012.1
20260509015431 46 113 0.0 0.0 0.00 0.00 0.00 89 1012.1
20260509014731 46 113 0.0 0.0 0.00 0.00 0.00 89 1012.0
20260509014004 46 113 0.0 0.0 0.00 0.00 0.00 89 1012.0
20260509013331 46 113 0.0 0.0 0.00 0.00 0.00 89 1012.0
20260509012600 46 113 0.0 0.0 0.00 0.00 0.00 89 1012.0
20260509011932 46 113 0.0 0.0 0.00 0.00 0.00 89 1012.1
20260509011232 46 135 0.0 0.0 0.00 0.00 0.00 89 1012.1
20260509010505 46 135 0.0 0.0 0.00 0.00 0.00 89 1012.1
20260509005752 46 135 0.0 0.0 0.00 0.00 0.00 89 1012.1
20260509005132 46 135 0.0 0.0 0.00 0.00 0.00 89 1012.2
20260509003733 46 135 0.0 0.0 0.00 0.00 0.00 89 1012.2
20260509003032 46 135 0.0 0.0 0.00 0.00 0.00 89 1012.2
20260509002333 46 135 0.0 0.0 0.00 0.00 0.00 89 1012.1
20260509001612 46 135 0.0 0.0 0.00 0.00 0.00 89 1012.3
20260509000853 46 135 0.0 0.0 0.00 0.00 0.00 89 1012.2
20260509000234 46 135 0.0 0.0 0.00 0.00 0.00 89 1012.3
20260508235524 46 135 0.0 0.0 0.00 0.00 0.00 89 1012.4
20260508234749 46 158 0.0 0.0 0.00 0.00 0.00 89 1012.3
20260508233434 46 359 0.0 0.0 0.00 0.00 0.00 89 1012.3
20260508232649 46 158 0.0 0.0 0.00 0.00 0.00 89 1012.2
20260508232035 46 158 0.0 1.0 0.00 0.00 0.00 89 1012.1